Regional Weather Roundup
Issued by NWS

Home | Current Version | Previous Version | Text Only | Print | Product List | Glossary Off
Versions: 1 2 3 4 5 6 7 8 9 10 11 12 13 14 15 16 17 18 19 20 21 22 23 24 25 26 27 28 29 30 31 32 33 34 35 36 37 38 39 40 41 42 43 44 45 46 47 48 49 50

000
ASUS43 KOAX 221910
RWRNE

WEATHER ROUNDUP FOR NEBRASKA
NATIONAL WEATHER SERVICE OMAHA NE
100 PM CST MON DEC 22 2014

NOTES: SATELLITE DATA IS BEING USED TO AUGMENT CLOUD COVER ABOVE
       12000 FEET.
       "FAIR" INDICATES FEW OR NO CLOUDS BELOW 12,000 FEET WITH NO
       SIGNIFICANT WEATHER AND/OR OBSTRUCTIONS TO VISIBILITY.

  * THESE STATIONS DO NOT REPORT WEATHER SUCH AS RAIN...SNOW OR FOG.

NEZ001>004-019>022-054>056-222000-
NEBRASKA PANHANDLE

CITY           SKY/WX    TMP DP  RH WIND       PRES   REMARKS
SCOTTSBLUFF    SUNNY     40  24  53 NW22G32   29.63F WCI  30
ALLIANCE       SUNNY     40  24  53 NW23G30   29.57F WCI  30
CHADRON        SUNNY     41  24  51 NW23G41   29.59F
KIMBALL        PTSUNNY   35  28  75 NW14G21   29.63F WCI  26
SIDNEY         MOSUNNY   39  22  50 NW25G35   29.63F WCI  28
$$

NEZ057>060-069>072-079>082-222000-
SOUTHWEST NEBRASKA

CITY           SKY/WX    TMP DP  RH WIND       PRES   REMARKS
NORTH PLATTE   SUNNY     47  26  44 NW22G30   29.54F
IMPERIAL       SUNNY     45  24  43 NW29G36   29.60F
LEXINGTON      MOSUNNY   46  32  56 NW17      29.52F
MCCOOK         MOSUNNY   49  27  42 NW28G35   29.57F
OGALLALA       SUNNY     42  28  56 NW20G28   29.59F
$$

NEZ005>010-023>029-035>040-094-222000-
NORTH CENTRAL NEBRASKA

CITY           SKY/WX    TMP DP  RH WIND       PRES   REMARKS
VALENTINE      CLOUDY    39  30  70 NW23G33   29.48F WCI  28
AINSWORTH      CLOUDY    37  30  75 NW22G32   29.48F WCI  27
BROKEN BOW     MOSUNNY   45  30  55 NW28G41   29.48F
O`NEILL        CLOUDY    39  37  90 NW16      29.45F WCI  30
THEDFORD       MOSUNNY   44  29  56 NW21G28   29.50F
$$

NEZ041-046>049-061>064-073>077-083>087-222000-
SOUTH CENTRAL NEBRASKA

CITY           SKY/WX    TMP DP  RH WIND       PRES   REMARKS
GRAND ISLAND   CLOUDY    45  33  63 NW22G29   29.47F
AURORA         CLOUDY    45  36  68 NW24G31   29.46F
HASTINGS       CLOUDY    46  32  58 NW23G31   29.48F
HEBRON         CLOUDY    47  36  67 NW16G22   29.47F
HOLDREGE       SUNNY     46  32  56 NW21G28   29.51F
KEARNEY *      PTSUNNY   46  30  53 NW20G25   29.50F
YORK           CLOUDY    45  37  76 NW18      29.45F
$$

NEZ011>018-030>034-042>045-222000-
NORTHEAST NEBRASKA

CITY           SKY/WX    TMP DP  RH WIND       PRES   REMARKS
NORFOLK        CLOUDY    42  37  82 NW18      29.42F
ALBION         CLOUDY    43  35  73 NW17G23   29.43F
BLAIR          LGT RAIN  43  41  93 SE7       29.41F
COLUMBUS *     CLOUDY    43  36  75 NW14      29.45F
FREMONT        CLOUDY    44  42  92 W6        29.42F
TEKAMAH        LGT RAIN  43  41  93 SE12      29.42F
WAYNE          RAIN      41  39  93 NW8       29.42F
$$

NEZ050>053-065>068-078-088>093-222000-
SOUTHEAST NEBRASKA

CITY           SKY/WX    TMP DP  RH WIND       PRES   REMARKS
LINCOLN        CLOUDY    44  40  85 NW10      29.45F
OMAHA EPPLEY   LGT RAIN  43  41  93 S10       29.44F FOG
BEATRICE       CLOUDY    43  40  90 NW12G18   29.44F
FALLS CITY     LGT RAIN  45  32  60 S9        29.43F
NEBRASKA CITY  LGT RAIN  43  43 100 S8        29.42F
PLATTSMOUTH    RAIN      42  40  94 S7        29.42F
$$

NEZ044-045-051>053-067-222000-
OMAHA AREA

CITY           SKY/WX    TMP DP  RH WIND       PRES   REMARKS
OMAHA EPPLEY   LGT RAIN  43  41  93 S10       29.44F FOG
BLAIR          LGT RAIN  43  41  93 SE7       29.41F
FREMONT        CLOUDY    44  42  92 W6        29.42F
MILLARD        LGT RAIN  43  41  93 S6        29.42F
PLATTSMOUTH    RAIN      42  40  94 S7        29.42F
WAHOO          CLOUDY    44  39  85 NW5       29.42F
$$



USA.gov is the U.S. government's official web portal to all federal, state and local government web resources and services.